Home > Weather > Midway > Past weeks

Flag for US Minor Outlying Islands Past Weather in Midway, US Minor Outlying Islands — Yesterday and Last 2 Weeks

Now
82 °F

Partly sunny.


Feels Like: 86 °F
Forecast: 73 / 80 °F
Wind: 16 mph from East

Location: Midway Island Naval Air Facility

Current Time: Jun 25, 2016 at 12:25:37 PM

Latest Report: Jun 25, 2016 at 11:46 AM


Visibility: 10 mi

Pressure: 30.17 "Hg

Humidity: 66%

Dew Point: 70 °F

Location of MidwayLocation

Past Weather in Midway — Graph

°F

Midway Temperature Yesterday

Maximum temperature yesterday: 84 °F (at 12:56 PM)
Minimum temperature yesterday: 75 °F (at 10:56 PM)
Average temperature yesterday: 79 °F

High & Low Weather Summary for the Past Weeks

 TemperatureHumidityPressure
High84 °F (Jun 21, 12:56 PM)94% (Jun 13, 9:51 AM)30.26 "Hg (Jun 13, 9:51 AM)
Low73 °F (Jun 23, 1:56 AM)58% (Jun 23, 12:12 PM)30.04 "Hg (Jun 11, 5:32 PM)
Average79 °F80%30.15 "Hg
* Reported Jun 10 10:56 AM — Jun 25 10:56 AM, Midway, Weather by CustomWeather, © 2016

Note: Actual official high and low records may vary slightly from our data, if they occured in-between our weather recording intervals... More about our weather records

Advertising

Midway Weather History for the Previous 24 Hours

Scroll right to see more
 ConditionsComfort  
Time TempWeatherWind HumidityBarometerVisibility
10:56 AM
Sat, Jun 25
80 °FPassing clouds.18 mph69%30.16 "Hg10 mi
9:56 AM80 °FPassing clouds.18 mph74%30.16 "Hg10 mi
8:56 AM78 °FSunny.21 mph82%30.16 "Hg10 mi
7:56 AM76 °FPassing clouds.21 mph82%30.17 "Hg10 mi
6:56 AM76 °FMostly cloudy.22 mph85%30.17 "Hg10 mi
6:44 AM75 °FLight rain. Cloudy.20 mph89%30.17 "Hg10 mi
5:56 AM75 °FPartly sunny.13 mph88%30.15 "Hg9 mi
4:56 AM75 °FMostly cloudy.15 mph88%30.16 "Hg10 mi
4:29 AM75 °FOvercast.16 mph89%30.16 "Hg10 mi
4:15 AM73 °FLight rain. Overcast.17 mph94%30.16 "Hg10 mi
4:00 AM73 °FRain. Fog.20 mph94%30.15 "Hg2 mi
2:56 AM75 °FPartly cloudy.18 mph88%30.14 "Hg10 mi
2:26 AM75 °FLight rain. Mostly cloudy.17 mph89%30.14 "Hg10 mi
1:56 AM77 °FPassing clouds.20 mph85%30.15 "Hg10 mi
1:11 AM77 °FPassing clouds.18 mph83%30.17 "Hg10 mi
12:56 AM77 °FPassing clouds.16 mph82%30.16 "Hg10 mi
12:34 AM75 °FPassing clouds.14 mph89%30.17 "Hg10 mi
12:17 AM75 °FPassing clouds.16 mph89%30.17 "Hg10 mi
11:56 PM
Fri, Jun 24
77 °FPassing clouds.20 mph85%30.16 "Hg10 mi
10:56 PM75 °FPartly cloudy.18 mph85%30.18 "Hg10 mi
9:56 PM78 °FPassing clouds.20 mph79%30.18 "Hg10 mi
8:56 PM78 °FPartly cloudy.17 mph82%30.18 "Hg10 mi
7:56 PM78 °FPassing clouds.17 mph82%30.17 "Hg10 mi
6:56 PM79 °FPartly sunny.13 mph79%30.15 "Hg10 mi
5:56 PM80 °FScattered clouds.20 mph74%30.12 "Hg10 mi
4:56 PM82 °FScattered clouds.16 mph72%30.14 "Hg10 mi
3:56 PM82 °FBroken clouds.15 mph70%30.16 "Hg10 mi
3:23 PM82 °FPartly sunny.16 mph70%30.16 "Hg10 mi
2:56 PM84 °FPassing clouds.16 mph65%30.16 "Hg10 mi
1:56 PM84 °FPassing clouds.13 mph65%30.17 "Hg10 mi
12:56 PM84 °FPassing clouds.14 mph65%30.19 "Hg10 mi
Weather by CustomWeather, © 2016

See weather overviewHow to use our weather pages